Location: Unspecified
(0.0000°N, 0.0000°E)
Time: 12:04:46
(UTC+00:00)

Cosmos 1655 Rocket - Pass Details

Date: 27 January 2013
Orbit: 971 x 1005 km, 82.9° (Epoch: 27 July)

Event Time Altitude Azimuth Distance (km) Brightness Sun altitude
Rises 18:44:34 0° 188° (S) 3,685 7.4 -7.5°
Reaches altitude 10° 18:47:05 10° 191° (S) 2,740 6.8 -8.1°
Maximum altitude 18:53:19 69° 273° (W) 1,056 4.4 -9.6°
Drops below altitude 10° 18:59:36 10° 356° (N) 2,754 6.2 -11.1°
Sets 19:02:09 0° 358° (N) 3,706 6.9 -11.7°
